Visibility
12.3 9.3 15.0 15.0 12.7 15.0 9.5 13.8 14.7 13.7 15.0 14.7 14.8 15.0 15.0 15.0 15.0 13.7 15.0 14.8 13.4 7.6 15.0 15.0 15.0 15.0 15.0 15.0 15.0 15.0 15.0 10.2 4.1 14.5 15.0 1.2 0.1 0.6 15.0 15.0 15.0 15.0 1.0 0.3 1.1 7.1 15.0 15.0 15.0 1.3 5.8 11.3 15.0 13.4
10.3 3.8 11.2 15.0 14.7 15.0 11.3 14.9 14.6 15.0 15.0 15.0 15.0 14.9 15.0 8.0 9.6 15.0 15.0 13.4 11.1 8.3 9.4 14.4 14.9 15.0 15.0 15.0 15.0 15.0 14.5 7.2 1.1 14.9 15.0 15.0 2.9 15.0 12.5 6.2 15.0 5.8 10.2 0.1 0.7 1.3 15.0 14.6 15.0 15.0 15.0 15.0 15.0 15.0
9.7 14.2 8.3 14.1 15.0 11.7 6.2 7.5 15.0 14.4 15.0 15.0 15.0 15.0 14.0 15.0 11.4 15.0 15.0 6.8 7.4 4.7 15.0 15.0 15.0 15.0 15.0 15.0 15.0 15.0 15.0 15.0 15.0 14.8 8.6 5.9 15.0 15.0 4.8 4.2 0.4 15.0 15.0 14.4 2.3 15.0 15.0 14.3 13.9 10.7 15.0 15.0 15.0 15.0
11.6 7.9 14.2 14.3 15.0 14.9 6.3 8.4 14.2 10.4 15.0 15.0 14.3 15.0 11.6 15.0 4.6 10.5 10.5 11.0 9.2 5.9 1.7 15.0 15.0 15.0 15.0 15.0 15.0 15.0 15.0 15.0 15.0 12.7 11.3 15.0 10.8 15.0 15.0 15.0 6.5 15.0 15.0 15.0 4.0 11.6 15.0 15.0 15.0 15.0 15.0 15.0 15.0 15.0
15.0 9.5 14.9 15.0 14.5 15.0 15.0 15.0 15.0 14.7 11.2 15.0 11.1 13.1 14.7 14.9 15.0 15.0 15.0 9.8 9.6 0.1 0.1 10.4 14.7 15.0 15.0 15.0 15.0 15.0 15.0 15.0 15.0 15.0 14.8 15.0 15.0 15.0 15.0 15.0 15.0 15.0 15.0 0.1 0.6 3.9 13.7 12.8 15.0 15.0 15.0 15.0 15.0 15.0
15.0 11.5 15.0 14.9 15.0 14.9 9.2 9.9 15.0 15.0 9.1 15.0 13.6 11.2 14.9 15.0 15.0 0.2 0.0 6.3 15.0 8.7 0.6 15.0 15.0 15.0 15.0 15.0 15.0 15.0 15.0 11.5 12.8 11.2 14.3 15.0 15.0 3.9 14.9 15.0 15.0 15.0 15.0 15.0 15.0 15.0 15.0 15.0 15.0 15.0 15.0 15.0 15.0 15.0
13.8 15.0 14.9 15.0 14.2 15.0 12.3 14.6 15.0 13.3 15.0 14.4 11.8 13.2 13.4 12.5 13.1 0.0 2.7 13.9 15.0 13.4 5.7 12.0 15.0 15.0 15.0 15.0 15.0 15.0 15.0 15.0 13.6 12.0 13.1 12.9 13.4 9.6 13.3 15.0 15.0 15.0 15.0 15.0 15.0 15.0 15.0 15.0 15.0 15.0 15.0 15.0 15.0 15.0
10.7 12.3 14.8 14.8 15.0 15.0 15.0 15.0 15.0 7.4 15.0 9.3 7.6 7.7 5.5 11.2 6.6 6.5 15.0 14.3 13.8 14.8 14.8 6.9 15.0 15.0 15.0 14.3 13.1 15.0 13.4 10.9 14.9 15.0 15.0 15.0 15.0 14.4 5.2 15.0 15.0 15.0 15.0 15.0 15.0 15.0 15.0 15.0 15.0 15.0 15.0 15.0 15.0 15.0
15.0 15.0 15.0 15.0 15.0 15.0 15.0 8.9 8.8 8.1 14.4 12.3 10.2 5.2 0.9 0.1 0.0 0.1 15.0 15.0 7.0 9.7 12.4 15.0 15.0 15.0 15.0 9.7 6.6 8.0 8.9 2.8 4.4 14.4 15.0 12.0 14.9 3.3 15.0 15.0 15.0 15.0 15.0 15.0 15.0 15.0 15.0 15.0 15.0 15.0 15.0 15.0 15.0 15.0
15.0 15.0 15.0 12.8 15.0 15.0 15.0 8.1 5.0 15.0 15.0 15.0 15.0 2.3 0.0 0.1 11.5 15.0 15.0 2.3 9.1 13.7 15.0 15.0 15.0 15.0 12.7 7.6 2.2 1.2 9.0 4.0 2.8 15.0 15.0 13.8 15.0 15.0 15.0 15.0 15.0 15.0 15.0 15.0 15.0 15.0 15.0 15.0 15.0 15.0 15.0 15.0 15.0 15.0
15.0 15.0 15.0 14.9 11.1 7.9 5.3 4.4 13.2 15.0 15.0 15.0 0.1 0.2 15.0 15.0 14.5 15.0 8.5 14.7 11.9 9.2 15.0 15.0 15.0 15.0 15.0 15.0 13.2 0.4 2.0 2.6 0.3 15.0 11.4 14.5 15.0 15.0 15.0 15.0 15.0 15.0 15.0 15.0 15.0 15.0 15.0 15.0 15.0 15.0 15.0 15.0 15.0 15.0
15.0 14.0 12.7 15.0 15.0 15.0 14.4 15.0 15.0 11.1 15.0 15.0 15.0 15.0 15.0 9.8 10.1 13.6 6.5 15.0 15.0 12.8 15.0 11.3 13.0 15.0 12.5 14.4 15.0 15.0 15.0 12.1 14.2 1.3 4.5 12.1 15.0 15.0 15.0 15.0 15.0 15.0 15.0 15.0 15.0 15.0 15.0 15.0 15.0 15.0 15.0 15.0 15.0 10.8
15.0 15.0 15.0 15.0 15.0 15.0 15.0 15.0 15.0 15.0 15.0 15.0 15.0 15.0 15.0 15.0 9.0 14.9 15.0 15.0 15.0 15.0 15.0 15.0 8.6 1.5 8.0 15.0 15.0 4.8 1.2 0.8 14.3 11.3 0.4 2.1 15.0 15.0 15.0 15.0 15.0 15.0 15.0 15.0 15.0 15.0 15.0 15.0 15.0 15.0 15.0 0.3 0.0 6.8
15.0 15.0 15.0 15.0 15.0 15.0 15.0 15.0 15.0 15.0 15.0 15.0 15.0 15.0 15.0 15.0 15.0 15.0 15.0 14.6 14.4 13.5 1.5 4.2 4.0 0.1 0.0 0.1 1.9 0.1 0.6 13.5 0.2 0.5 4.7 14.9 15.0 14.9 15.0 15.0 15.0 15.0 15.0 15.0 15.0 15.0 0.1 0.3 0.6 15.0 15.0 15.0 6.5 10.4
15.0 15.0 15.0 15.0 15.0 15.0 15.0 15.0 15.0 15.0 15.0 15.0 15.0 15.0 15.0 15.0 15.0 12.4 1.8 5.0 14.5 9.5 0.6 1.3 6.1 0.4 0.2 0.1 5.6 1.3 15.0 4.2 15.0 8.6 0.4 11.4 14.7 10.8 15.0 15.0 15.0 10.7 0.8 2.3 15.0 5.8 14.1 15.0 10.0 12.3 15.0 9.6 14.2 0.0
15.0 15.0 15.0 15.0 15.0 15.0 15.0 15.0 15.0 15.0 15.0 13.2 9.5 13.2 15.0 4.1 0.5 0.1 0.2 4.3 3.2 0.0 0.1 0.5 0.3 0.1 0.3 0.8 13.4 8.3 14.5 15.0 13.6 8.6 13.9 15.0 15.0 15.0 15.0 15.0 5.5 15.0 13.7 15.0 14.7 13.3 10.4 0.1 1.1 15.0 9.9 14.4 0.4 0.1
15.0 15.0 15.0 15.0 15.0 15.0 15.0 15.0 15.0 10.3 15.0 15.0 15.0 10.0 15.0 15.0 15.0 13.9 13.9 14.3 15.0 0.0 0.1 0.1 0.1 0.1 1.3 0.3 2.2 15.0 14.8 9.0 8.8 14.8 15.0 15.0 15.0 15.0 13.9 15.0 15.0 1.3 15.0 15.0 15.0 15.0 15.0 15.0 15.0 15.0 15.0 7.1 0.3 14.4
15.0 15.0 15.0 15.0 15.0 15.0 15.0 15.0 10.6 10.5 14.0 15.0 15.0 13.2 11.6 14.1 15.0 15.0 11.6 8.8 13.5 12.1 2.5 0.2 10.2 12.6 11.9 14.2 14.3 9.4 10.8 15.0 15.0 15.0 15.0 15.0 15.0 15.0 15.0 15.0 15.0 15.0 15.0 15.0 15.0 15.0 15.0 15.0 15.0 15.0 15.0 15.0 15.0 15.0
15.0 14.1 15.0 15.0 15.0 15.0 11.0 12.0 13.7 9.9 15.0 15.0 15.0 14.1 15.0 15.0 15.0 15.0 15.0 15.0 15.0 15.0 15.0 15.0 15.0 15.0 2.7 0.8 6.3 11.0 13.2 14.2 15.0 15.0 15.0 15.0 15.0 13.9 5.4 15.0 11.1 15.0 15.0 15.0 15.0 15.0 15.0 15.0 15.0 15.0 15.0 15.0 15.0 15.0
15.0 15.0 15.0 15.0 15.0 6.4 15.0 12.1 15.0 14.6 15.0 14.6 15.0 15.0 15.0 15.0 15.0 15.0 15.0 15.0 15.0 3.3 8.1 14.2 15.0 13.1 14.3 14.5 14.0 15.0 15.0 15.0 15.0 15.0 15.0 15.0 15.0 15.0 15.0 15.0 15.0 15.0 15.0 15.0 15.0 15.0 15.0 15.0 15.0 15.0 15.0 15.0 15.0 0.2
15.0 1.5 15.0 15.0 11.0 10.9 8.9 15.0 9.4 15.0 15.0 14.3 15.0 14.9 15.0 15.0 15.0 15.0 15.0 15.0 9.9 15.0 3.9 1.3 0.1 15.0 15.0 15.0 15.0 15.0 15.0 15.0 15.0 14.3 15.0 14.3 15.0 15.0 7.6 10.8 12.3 14.9 15.0 15.0 15.0 15.0 15.0 15.0 15.0 15.0 0.0 0.0 0.1 0.4
7.2 15.0 15.0 15.0 0.0 0.0 11.8 15.0 15.0 15.0 15.0 15.0 15.0 15.0 14.9 15.0 14.2 12.8 10.8 11.7 13.0 0.1 0.1 9.1 15.0 15.0 15.0 15.0 15.0 15.0 15.0 15.0 15.0 14.5 0.2 0.1 1.5 6.3 15.0 10.1 10.2 11.8 13.0 15.0 15.0 13.7 11.2 15.0 15.0 15.0 0.1 0.1 15.0 4.9
15.0 11.2 2.1 0.1 0.6 2.3 14.9 14.0 0.5 14.6 9.8 7.9 9.8 0.8 12.2 14.4 14.5 15.0 14.1 3.8 5.0 12.2 15.0 15.0 15.0 15.0 15.0 15.0 15.0 15.0 15.0 15.0 15.0 13.5 0.0 0.0 0.0 0.1 8.1 14.3 15.0 1.2 15.0 15.0 15.0 15.0 3.3 6.3 9.6 0.0 0.0 2.7 2.6 3.0
11.9 0.0 0.3 0.2 0.2 0.2 11.2 12.5 15.0 15.0 14.2 11.4 1.4 3.0 15.0 15.0 15.0 15.0 15.0 0.7 12.0 6.9 7.1 15.0 15.0 15.0 15.0 15.0 15.0 15.0 15.0 15.0 15.0 15.0 7.3 0.0 0.0 0.0 0.0 0.0 0.1 15.0 15.0 12.8 3.2 0.6 0.0 0.0 0.0 0.2 0.1 0.8 1.0 1.4
1.0 1.0 5.4 3.7 14.1 4.0 3.9 10.6 8.2 1.6 0.8 6.4 15.0 15.0 15.0 15.0 15.0 15.0 14.9 0.1 0.1 8.3 15.0 15.0 15.0 15.0 15.0 15.0 15.0 15.0 15.0 15.0 15.0 15.0 15.0 0.0 0.1 0.0 0.0 0.0 0.0 0.0 0.0 0.0 0.0 0.0 0.0 0.0 0.0 0.0 0.1 0.2 0.2 0.3
0.4 0.1 0.4 1.0 9.8 10.6 4.9 10.9 2.0 4.1 15.0 15.0 15.0 15.0 15.0 15.0 15.0 15.0 0.1 0.1 0.7 13.4 8.6 7.6 7.5 14.4 14.4 15.0 15.0 15.0 15.0 2.6 14.5 15.0 0.0 0.0 0.0 0.2 0.3 0.1 0.0 0.0 0.3 0.0 0.0 0.0 0.0 0.0 0.0 0.0 0.1 0.2 0.4 0.4
0.1 0.2 4.0 14.7 7.1 12.5 8.0 15.0 15.0 9.0 11.3 7.7 5.2 6.8 3.5 1.1 4.3 0.1 0.2 6.2 6.3 8.5 14.2 11.2 12.3 10.5 8.9 13.0 15.0 15.0 15.0 15.0 7.5 11.3 15.0 2.1 0.0 4.2 1.6 0.2 0.1 0.1 0.3 0.1 0.0 0.0 0.0 0.0 0.0 0.0 0.1 0.0 0.1 0.3
0.2 8.2 15.0 15.0 0.2 2.3 0.2 0.9 0.2 0.3 0.1 0.6 15.0 1.0 0.2 0.1 0.1 0.1 0.4 6.4 14.8 15.0 15.0 15.0 14.5 14.0 4.0 1.8 5.5 14.7 15.0 15.0 15.0 15.0 14.0 0.1 0.0 0.1 0.7 0.3 0.5 3.5 13.6 10.5 2.2 0.2 1.9 2.4 2.1 0.1 0.0 0.1 0.1 0.0
15.0 15.0 15.0 15.0 15.0 1.6 0.2 0.2 0.2 0.3 0.2 4.3 0.7 0.9 3.9 0.1 0.2 0.5 0.9 15.0 15.0 15.0 12.7 7.3 12.2 15.0 15.0 15.0 15.0 0.1 0.0 0.6 0.2 0.5 0.9 0.7 0.1 0.2 2.3 6.7 15.0 11.4 0.1 1.7 5.8 5.9 2.7 3.1 9.6 13.1 6.7 0.5 0.0 0.0
15.0 15.0 15.0 15.0 15.0 0.2 0.2 1.6 3.4 6.6 6.2 0.3 0.3 9.1 4.9 0.1 0.1 5.6 15.0 13.2 9.3 1.1 0.6 1.6 2.2 1.5 1.8 5.4 13.7 8.7 0.1 0.6 0.2 0.1 0.2 0.1 0.1 0.1 0.2 0.2 0.9 3.4 1.1 8.7 5.0 4.1 6.3 0.8 2.4 10.6 9.7 4.4 1.9 1.1
15.0 15.0 15.0 15.0 15.0 15.0 15.0 15.0 15.0 15.0 15.0 11.0 10.3 9.5 3.9 0.1 0.1 1.1 15.0 8.4 10.6 11.6 8.3 1.9 2.2 1.3 1.1 1.9 0.9 5.7 6.2 10.0 0.9 0.2 0.1 0.1 0.2 0.6 1.4 1.1 0.5 0.6 2.4 12.5 7.8 4.9 1.2 0.8 0.8 1.3 0.8 1.3 1.5 1.8
15.0 15.0 15.0 15.0 15.0 15.0 2.0 1.0 15.0 15.0 15.0 15.0 15.0 15.0 8.6 0.2 0.1 0.3 2.2 5.4 4.7 2.9 3.0 2.3 1.2 0.8 6.0 0.2 1.5 0.6 0.2 0.2 0.6 0.3 0.7 0.7 1.3 5.1 13.0 6.9 1.1 0.8 1.1 0.6 2.1 2.9 3.2 0.8 1.0 1.3 1.0 1.1 0.8 2.4
15.0 15.0 15.0 3.7 8.2 15.0 15.0 13.4 15.0 15.0 15.0 15.0 15.0 0.5 0.1 0.2 0.1 0.1 1.4 0.8 0.1 1.0 0.7 1.7 0.9 0.3 5.3 0.6 0.4 2.3 1.1 0.3 0.4 1.7 13.2 5.4 15.0 9.7 1.3 0.2 0.3 0.9 1.0 0.5 1.1 1.4 1.0 0.7 0.5 0.7 1.4 1.9 1.1 0.9